Showing default

GHOST-3, 56958

Orbit data source: Space-Track

GHOST-3, 56958 is a payload satellite owned by Orbital Sidekick (US) in SSO that was launched on Mon, 12 Jun 2023 UTC via an FALCON 9 launch vehicle from the Air Force Western Test Range (AFWTR). Payload-class satellites include a variety of spacecraft equipped with specific instruments for various scientific and technological missions. These include communications satellites like Starlink; space stations such as the ISS; scientific satellites like the Hubble; Earth observation satellites from companies like Planet Labs, Umbra, and HawkEye 360; GPS; miniature CubeSats for education and research; and military/defense satellites.

Loading next visibility...
Identifier
56958, 2023-084AC
Orbit
SSO
Country
Flag of USUS
Related business
Manufacturer
Astro Digital
Mission
Operational Commercial Imaging
Bus & Motor
CORVUS-XL, Unknown motor
Mass
85 kg wet, 85 kg dry
Launch date (UTC)
2023-06-12 (2 years ago)
Launch vehicle
FALCON 9
Launch site
Air Force Western Test Range (AFWTR)
Object type
Payload
Rocket body
Debris
Shape & HBR
Box + 1 Dish, 1.0 m
Radar Cross Section
0.425 m², Medium (>0.1 m² and < 1m²)

Expand to show TLE details & history
Last TLE update: 11 hours ago

TLE from 11 hours ago
0 GHOST-3
1 56958U 23084AC  25260.88831729  .00013331  00000-0  37720-3 0  9994
2 56958  97.5883  32.7994 0008451 189.2232 170.8857 15.36403137126046
Epoch: 2025-09-17T21:19Z
TLE epoch observation values (Epoch: 2025-09-17T21:19:10.613Z)
Latitude
-0.00011°
Longitude
75.94739°
Altitude
465.568 km
Speed
7.63 km/s
True Right ascension
02h 11m 11s
True Declination
0° 00' 00"
Sunlit
Object was in full shadow at epoch
Visualization orbit readout
Latitude
Unknown
Longitude
Unknown
Altitude
Unknown
Speed
Unknown
Apparent Right ascension
Unknown
Apparent Declination
Unknown
Sunlit
N/A
Visualization observer readout
Local Sidereal Time
01:22:15
Azimuth
Unknown
Elevation
Unknown
Doppler factor
Unknown
Orbital elements
Apogee altitude
459.482 km
Perigee altitude
447.934 km
Semi-major axis
6,831.845 km
Eccentricity
0.00085
Inclination
97.5883°
RAAN
32.7994°
Arg. of periapsis
189.2232°
True anomaly
170.90102°
Mean anomaly
170.8857°
Eccentric anomaly
170.89336°
Mean motion
3.84358 °/min
Orbital period
93.66 mins
BSTAR
0.0003772
Loading maneuver chart data...
Computing Atmospheric mass density...
Loading historical data...
Loading historical data...
Loading historical data...
Loading historical data...
Loading historical data...
Loading historical data...
Loading historical data...

Documentation

Showing up to 5 results
|